sat.trackr.live / text

‹ back to catalog

STARLINK-2045

NORAD 47353 · 2021-005E

PAYLOAD ACTIVE UNKNOWN

§ Identity

Operator
Country
US
Launch date
2021-01-20
Launch site
AFETR
Launch vehicle
Mass (kg)
RCS (m²)

Purposes: comms

External: N2YO · Heavens-Above · Gunter

§ Orbital elements

Epoch: 2026-09-20T00:39:59.527584Z

Period
94.01 min
Inclination
53.1580°
Eccentricity
0.0001240
Mean motion
15.31717637 rev/d
Perigee alt
469.8 km
Apogee alt
471.5 km
Semi-major
6,848.8 km
B*
-9.8624e-5
RAAN
176.2378°
Arg perigee
92.1963°
Mean anomaly
267.9180°
Rev number
31,368

§ Raw data

STARLINK-20451 47353U 21005E   26263.02777231 -.00003426  00000+0 -98624-4 0  99972 47353  53.1580 176.2378 0001240  92.1963 267.9180 15.31717637313682

JSON: /api/v1/satellites/47353 · /tle

For live sub-satellite position, see the globe view (requires WebGL).

§ Visibility from observer

Set your observer location to see the next 7 days of passes ≥ 10°. The values pass through the URL so the page stays shareable.

No JS? Fill the form by hand. The geolocation button needs JavaScript.